Powrót do katalogu

STARLINK-32122

AktywnyŁącznośćVLEO
NORAD 60285·PAYLOAD·🇺🇸 United States

Wystrzelony Jul 28, 2024 z Cape Canaveral Space Force Station

Loading…

Następne Przeloty (najbliższe 24 godziny)

TLE

ŚwieżeSource: CelesTrak SupGP

Epoka: Sep 15, 2026, 03:18 UTC

1 60285C 24132H   26258.13798611 -.00038697  00000+0 -12442-2 0  2589
2 60285  53.1592 251.6507 0001387  87.9088  41.9566 15.31725751    12

Śledź STARLINK-32122 w czasie rzeczywistym z AllMySat

Download on the App Store